Powrót do katalogu

RE

AktywnyNaukaVLEO
NORAD 38765·PAYLOAD·🇺🇸 United States

Wystrzelony Sep 13, 2012 z Vandenberg Space Force Base

Loading…

Następne Przeloty (najbliższe 24 godziny)

TLE

ŚwieżeSource: Space-Track

Epoka: Sep 14, 2026, 09:55 UTC

1 38765U 12048H   26257.41342414  .00005200  00000-0  21628-3 0  9998
2 38765  64.6541 251.3549 0077981 145.4092 215.2144 15.22209434128971

Śledź RE w czasie rzeczywistym z AllMySat

Download on the App Store